Flag for Peru Weather past 2 weeks in Iquitos, Loreto, Peru

Now
79 °F

Partly cloudy.


Feels Like: 82 °F
Forecast: 74 / 91 °F
Wind: No wind

Location: Iquitos Airport

Current Time: Sep 20, 2014 at 10:02:18 PM

Latest Report: Sep 20, 2014 at 9:00 PM


Visibility: N/A

Pressure: 29.89 "Hg

Humidity: 89%

Dew point: 75 °F

Location of IquitosLocation

Historic Weather in Iquitos — Graph

°F

Iquitos temperature yesterday

Maximum temperature yesterday: 90 °F (at 4:00 PM)
Minimum temperature yesterday: 75 °F (at 1:00 AM)
Average temperature yesterday: 80 °F

Past Weeks' High & Low Weather Summary

 TemperatureHumidityPressure
High93 °F (Sep 7, 2:00 PM)100% (Sep 12, 2:00 AM)30.01 "Hg (Sep 12, 2:00 AM)
Low70 °F (Sep 6, 5:00 AM)47% (Sep 7, 2:00 PM)29.71 "Hg (Sep 10, 3:00 PM)
Average79 °F83%29.86 "Hg
* Reported Sep 5 9:00 PM — Sep 20 9:00 PM, Iquitos, Weather by CustomWeather, © 2014

Note: Actual official high and low records may vary slightly from our data, if they occured in-between our weather recording intervals... More about our weather records

Advertising

Iquitos weather history for previous 24 hours

 ConditionsComfort  
Time TempWeatherWind HumidityBarometerVisibility
9:00 PM
Sep 20
79 °FPartly cloudy.No wind89%29.89 "HgN/A
8:00 PM79 °FPartly cloudy.No wind89%29.83 "HgN/A
7:00 PM79 °FPartly cloudy.3 mph89%29.83 "HgN/A
6:00 PM81 °FPartly cloudy.3 mph84%29.77 "HgN/A
5:00 PM84 °FBroken clouds.3 mph74%29.74 "HgN/A
4:00 PM82 °FBroken clouds.No wind79%29.74 "HgN/A
3:00 PM84 °FScattered showers. Scattered clouds.No wind66%29.74 "HgN/A
2:00 PM86 °FScattered showers. Scattered clouds.5 mph66%29.77 "HgN/A
1:00 PM91 °FPartly sunny.5 mph56%29.86 "HgN/A
8:00 AM81 °FPartly sunny.7 mph84%29.92 "HgN/A
7:00 AM75 °FBroken clouds.No wind94%29.89 "HgN/A
6:00 AM72 °FBroken clouds.No wind94%29.83 "Hg5 mi
5:00 AM72 °FPartly cloudy.No wind94%29.80 "Hg5 mi
4:00 AM73 °FPartly cloudy.No wind94%29.80 "Hg5 mi
3:00 AM73 °FPartly cloudy.No wind94%29.80 "Hg5 mi
2:00 AM73 °FPartly cloudy.No wind94%29.80 "Hg5 mi
1:00 AM73 °FPassing clouds.No wind94%29.83 "HgN/A
12:00 AM73 °FPassing clouds.No wind94%29.86 "HgN/A
11:00 PM
Sep 19
75 °FPassing clouds.No wind94%29.86 "HgN/A
10:00 PM75 °FPassing clouds.No wind94%29.86 "HgN/A
Weather by CustomWeather, © 2014

See weather overviewHow to use our weather pages